Regional Weather Roundup
Issued by NWS

Home | Current Version | Previous Version | Text Only | Print | Product List | Glossary Off
Versions: 1 2 3 4 5 6 7 8 9 10 11 12 13 14 15 16 17 18 19 20 21 22 23 24 25 26 27 28 29 30 31 32 33 34 35 36 37 38 39 40 41 42 43 44 45 46 47 48 49 50

000
ASUS43 KDTX 231910
RWRMI
MICHIGAN HOURLY REGIONAL WEATHER ROUNDUP
NATIONAL WEATHER SERVICE DETROIT/PONTIAC MI
300 PM EDT FRI JUN 23 2017

NOTE: "FAIR" INDICATES FEW OR NO CLOUDS BELOW 12,000 FEET WITH NO
SIGNIFICANT WEATHER AND/OR OBSTRUCTION TO VISIBILITY.

MIZ047>049-052>055-059>063-066>070-074>076-081>083-232000-
SOUTHEAST LOWER MICHIGAN

CITY           SKY/WX    TMP DP  RH WIND       PRES   REMARKS
ADRIAN         CLOUDY    75  66  73 NW12G20   29.65R
ALMA           MOSUNNY   76  57  51 W14G20    29.64R
ANN ARBOR      CLOUDY    77  66  68 W10G21    29.62R
BAD AXE        CLOUDY    72  67  82 W9        29.60S
CARO           CLOUDY    73  69  87 W6        29.60S
DETROIT CITY   CLOUDY    79  67  66 W8        29.59S
DETROIT        CLOUDY    80  66  62 NW10      29.61R
FLINT          CLOUDY    73  66  78 W7        29.63R
GROSSE ILE     CLOUDY    76  71  84 SW6       29.60R
HILLSDALE      CLOUDY    70  64  83 W7        29.67F
HOWELL         CLOUDY    74  64  71 NW7       29.64S

CITY           SKY/WX    TMP DP  RH WIND       PRES   REMARKS
JACKSON        CLOUDY    73  65  75 W9        29.66R
LAMBERTVILLE   CLOUDY    76  69  78 SW13G20   29.61F
LANSING        CLOUDY    77  62  59 NW13      29.65R
LAPEER         CLOUDY    73  65  76 NW10      29.62S
MASON          CLOUDY    73  65  74 W12       29.65F
MONROE         LGT RAIN  75  70  83 SW10G21   29.60R
MT. CLEMENS    PTSUNNY   75  71  87 S5        29.57F
PONTIAC        CLOUDY    74  66  76 W14       29.62R
PORT HOPE        N/A     72  67  84 VRB5      29.57S
PORT HURON     CLOUDY    75  64  69 S7        29.60S
TRI CITIES     CLOUDY    75  66  73 W12       29.61S
MIDLAND        FAIR      77  57  49 NW9       29.60R
TROY           CLOUDY    80  64  58 W10       29.62R
SAGINAW HB     CLOUDY    77  61  57 W8        29.60S
$$
MIZ043>046-050>051-056>058-064>065-071>073-077>080-232000-
SOUTHWEST LOWER MICHIGAN

CITY           SKY/WX    TMP DP  RH WIND       PRES   REMARKS
BATTLE CREEK   CLOUDY    75  63  66 W12       29.69R
BENTON HARBOR  CLOUDY    71  61  70 W9        29.71R
BIG RAPIDS     MOSUNNY   74  52  47 N13       29.65R
COLDWATER      CLOUDY    72  66  81 W10       29.68S
FREMONT        FAIR      76  56  49 NW13      29.66R
HOLLAND        CLOUDY    73  61  65 VRB7G18   29.69R
GRAND RAPIDS   PTSUNNY   74  64  71 W15       29.66R
IONIA          PTSUNNY   76  60  56 NW10G16   29.65R
KALAMAZOO      PTSUNNY   74  60  61 NW13G18   29.69R
LUDINGTON      PTSUNNY   72  60  64 NW7       29.65S
MARSHALL       CLOUDY    74  64  69 W10G16    29.67S
MOUNT PLEASANT CLOUDY    76  58  53 W9        29.62R
MUSKEGON       PTSUNNY   75  58  55 W12       29.67R
SOUTH HAVEN    PTSUNNY   71  64  79 NW6       29.71R
$$
MIZ016>042-232000-
NORTHERN LOWER MICHIGAN

CITY           SKY/WX    TMP DP  RH WIND       PRES   REMARKS
ALPENA         CLOUDY    77  58  51 N12       29.57S
BEAVER ISLAND  MOSUNNY   71  56  58 SW12      29.60S
BELLAIRE       PTSUNNY   74  54  48 W5        29.62R
CADILLAC       MOSUNNY   74  49  40 NW13G20   29.64S
CHARLEVOIX     MOSUNNY   71  57  60 W13       29.64R
FRANKFORT      CLOUDY    72  57  59 W8        29.64S
GAYLORD        PTSUNNY   74  49  41 W8        29.62R
GRAYLING       PTSUNNY   74  52  46 NW14      29.63R
HARBOR SPRINGS PTSUNNY   65  63  94 W9        29.61R
HOUGHTON LAKE  CLOUDY    75  54  47 NW15G21   29.62S
MANISTEE       PTSUNNY   74  57  55 W8        29.65R
OSCODA         PTSUNNY   76  62  63 NW9       29.57S
PELLSTON       MOSUNNY   77  45  32 W12G18    29.59
ROGERS CITY    MOSUNNY   69  60  73 N8        29.58R
TRAVERSE CITY  PTSUNNY   78  44  29 W14       29.61R
$$
MIZ007>008-015-232000-
EASTERN UPPER MICHIGAN

CITY           SKY/WX    TMP DP  RH WIND       PRES   REMARKS
KINROSS        MOSUNNY   73  52  47 NW12      29.56F
MACKINAC ISLAN MOSUNNY   66  64  90 SW12      29.57F
NEWBERRY       CLOUDY    71  49  45 N13G18    29.56S
S. S. MARIE    CLOUDY    76  47  35 NW8       29.55F
MUNISING         N/A     63  48  58 N13       29.60R
$$
MIZ004>006-011>014-085-232000-
CENTRAL UPPER MICHIGAN

CITY           SKY/WX    TMP DP  RH WIND       PRES   REMARKS
MANISTIQUE     MOSUNNY   70  61  71 SW7       29.57F
ESCANABA       PTSUNNY   78  48  34 W17G26    29.57S
MENOMINEE      MOSUNNY   77  47  34 W8G17     29.61S
SAWYER-GWINN   PTSUNNY   72  46  40 W15G22    29.61R
$$
MIZ001>003-009>011-084-232000-
WESTERN UPPER MICHIGAN

CITY           SKY/WX    TMP DP  RH WIND       PRES   REMARKS
IRON MOUNTAIN  PTSUNNY   72  45  37 NW17      29.62
HOUGHTON       MOSUNNY   66  50  56 W26G36    29.62
COPPER HARBOR    N/A     66  49  54 N22G31    29.59R
IRONWOOD       MOSUNNY   65  50  58 NW16G23   29.69F
$$

ABBREVIATIONS USED IN REMARKS
   TC - TEMPERATURE IN CELSIUS
  WCI - WIND CHILL INDEX
   HX - HEAT INDEX
  VSB - VISIBILITY





USA.gov is the U.S. government's official web portal to all federal, state and local government web resources and services.